Time,TemperatureF,DewpointF,PressureIn,WindDirection,WindDirectionDegrees,WindSpeedMPH,WindSpeedGustMPH,Humidity,HourlyPrecipIn,Conditions,Clouds,dailyrainin,SoftwareType,DateUTC
2013-03-22 00:00:00,54.8,46.0,29.96,East,84,0.0,0.0,72,0.00,,CLR,0.00,VWS V14.01,2013-03-22 04:00:00,
2013-03-22 00:03:00,54.7,45.9,29.96,East,85,0.0,0.0,72,0.00,,CLR,0.00,VWS V14.01,2013-03-22 04:03:00,
2013-03-22 00:08:00,54.6,46.5,29.96,East,80,0.0,0.0,74,0.00,,CLR,0.00,VWS V14.01,2013-03-22 04:08:00,
2013-03-22 00:13:00,54.6,46.1,29.96,East,85,0.0,0.0,73,0.00,,CLR,0.00,VWS V14.01,2013-03-22 04:13:00,
2013-03-22 00:18:00,54.5,46.0,29.95,East,84,0.0,0.0,73,0.00,,CLR,0.00,VWS V14.01,2013-03-22 04:18:00,
2013-03-22 00:23:00,54.5,46.0,29.95,East,86,0.0,0.0,73,0.00,,CLR,0.00,VWS V14.01,2013-03-22 04:23:00,
2013-03-22 00:28:00,54.5,46.0,29.95,East,86,0.0,0.0,73,0.00,,CLR,0.00,VWS V14.01,2013-03-22 04:28:00,
2013-03-22 00:33:00,54.4,45.9,29.95,East,86,0.0,1.0,73,0.00,,CLR,0.00,VWS V14.01,2013-03-22 04:33:00,
2013-03-22 00:38:00,54.3,45.8,29.96,East,85,0.0,1.0,73,0.00,,CLR,0.00,VWS V14.01,2013-03-22 04:38:00,
2013-03-22 00:43:00,54.1,45.7,29.96,East,85,0.0,1.0,73,0.00,,CLR,0.00,VWS V14.01,2013-03-22 04:43:00,
2013-03-22 00:48:00,54.0,45.9,29.95,East,83,0.0,1.0,74,0.00,,CLR,0.00,VWS V14.01,2013-03-22 04:48:00,
2013-03-22 00:53:00,53.9,45.8,29.95,East,83,0.0,1.0,74,0.00,,CLR,0.00,VWS V14.01,2013-03-22 04:53:00,
2013-03-22 00:58:00,53.8,45.7,29.95,East,83,0.0,1.0,74,0.00,,CLR,0.00,VWS V14.01,2013-03-22 04:58:00,
2013-03-22 01:03:00,53.8,45.7,29.95,East,82,0.0,0.0,74,0.00,,CLR,0.00,VWS V14.01,2013-03-22 05:03:00,
2013-03-22 01:08:00,53.7,46.0,29.96,East,81,0.0,0.0,75,0.00,,CLR,0.00,VWS V14.01,2013-03-22 05:08:00,
2013-03-22 01:13:00,53.6,45.5,29.96,East,84,0.0,0.0,74,0.00,,CLR,0.00,VWS V14.01,2013-03-22 05:13:00,
2013-03-22 01:18:00,53.5,45.8,29.95,East,83,0.0,0.0,75,0.00,,CLR,0.00,VWS V14.01,2013-03-22 05:18:00,
2013-03-22 01:23:00,53.4,45.3,29.96,East,85,0.0,0.0,74,0.00,,CLR,0.00,VWS V14.01,2013-03-22 05:23:00,
2013-03-22 01:28:00,53.3,45.6,29.96,East,83,0.0,0.0,75,0.00,,CLR,0.00,VWS V14.01,2013-03-22 05:28:00,
2013-03-22 01:33:00,53.1,45.8,29.96,East,81,0.0,0.0,76,0.00,,CLR,0.00,VWS V14.01,2013-03-22 05:33:00,
2013-03-22 01:38:00,52.8,45.5,29.95,East,79,0.0,0.0,76,0.00,,CLR,0.00,VWS V14.01,2013-03-22 05:38:00,
2013-03-22 01:43:00,52.7,44.7,29.96,East,85,0.0,0.0,74,0.00,,CLR,0.00,VWS V14.01,2013-03-22 05:43:00,
2013-03-22 01:48:00,52.6,44.9,29.95,East,87,0.0,0.0,75,0.00,,CLR,0.00,VWS V14.01,2013-03-22 05:48:00,
2013-03-22 01:53:00,52.5,44.8,29.95,East,85,0.0,1.0,75,0.00,,CLR,0.00,VWS V14.01,2013-03-22 05:53:00,
2013-03-22 01:58:00,52.5,45.2,29.95,East,82,0.0,1.0,76,0.00,,CLR,0.00,VWS V14.01,2013-03-22 05:58:00,
2013-03-22 02:03:00,52.4,45.1,29.95,East,83,0.0,0.0,76,0.00,,CLR,0.00,VWS V14.01,2013-03-22 06:03:00,
2013-03-22 02:08:00,52.4,45.4,29.95,East,82,0.0,0.0,77,0.00,,CLR,0.00,VWS V14.01,2013-03-22 06:08:00,
2013-03-22 02:13:00,52.3,45.0,29.95,East,85,0.0,0.0,76,0.00,,CLR,0.00,VWS V14.01,2013-03-22 06:13:00,
2013-03-22 02:18:00,52.2,45.2,29.95,East,83,0.0,1.0,77,0.00,,CLR,0.00,VWS V14.01,2013-03-22 06:18:00,
2013-03-22 02:23:00,52.2,45.2,29.95,East,81,0.0,1.0,77,0.00,,CLR,0.00,VWS V14.01,2013-03-22 06:23:00,
2013-03-22 02:28:00,52.1,45.1,29.95,East,80,0.0,1.0,77,0.00,,CLR,0.00,VWS V14.01,2013-03-22 06:28:00,
2013-03-22 02:33:00,52.1,45.1,29.95,East,83,0.0,1.0,77,0.00,,CLR,0.00,VWS V14.01,2013-03-22 06:33:00,
2013-03-22 02:38:00,52.0,45.4,29.94,East,80,0.0,1.0,78,0.00,,CLR,0.00,VWS V14.01,2013-03-22 06:38:00,
2013-03-22 02:43:00,52.0,45.4,29.94,East,79,0.0,1.0,78,0.00,,CLR,0.00,VWS V14.01,2013-03-22 06:43:00,
2013-03-22 02:48:00,51.9,45.3,29.94,ENE,78,0.0,1.0,78,0.00,,CLR,0.00,VWS V14.01,2013-03-22 06:48:00,
2013-03-22 02:53:00,51.9,44.6,29.94,East,86,0.0,1.0,76,0.00,,CLR,0.00,VWS V14.01,2013-03-22 06:53:00,
2013-03-22 02:58:00,51.8,44.5,29.94,East,86,0.0,1.0,76,0.00,,CLR,0.00,VWS V14.01,2013-03-22 06:58:00,
2013-03-22 03:03:00,51.8,44.5,29.94,East,86,0.0,0.0,76,0.00,,CLR,0.00,VWS V14.01,2013-03-22 07:03:00,
2013-03-22 03:08:00,51.7,44.4,29.94,East,86,0.0,0.0,76,0.00,,CLR,0.00,VWS V14.01,2013-03-22 07:08:00,
2013-03-22 03:13:00,51.6,44.3,29.94,East,86,0.0,0.0,76,0.00,,CLR,0.00,VWS V14.01,2013-03-22 07:13:00,
2013-03-22 03:18:00,51.6,44.3,29.94,East,86,0.0,0.0,76,0.00,,CLR,0.00,VWS V14.01,2013-03-22 07:18:00,
2013-03-22 03:23:00,51.5,44.2,29.94,East,86,0.0,0.0,76,0.00,,CLR,0.00,VWS V14.01,2013-03-22 07:23:00,
2013-03-22 03:28:00,51.5,44.2,29.93,East,86,0.0,0.0,76,0.00,,CLR,0.00,VWS V14.01,2013-03-22 07:28:00,
2013-03-22 03:33:00,51.4,44.1,29.93,East,86,0.0,0.0,76,0.00,,CLR,0.00,VWS V14.01,2013-03-22 07:33:00,
2013-03-22 03:38:00,51.3,44.0,29.93,East,86,0.0,0.0,76,0.00,,CLR,0.00,VWS V14.01,2013-03-22 07:38:00,
2013-03-22 03:43:00,51.2,43.9,29.93,East,86,0.0,0.0,76,0.00,,CLR,0.00,VWS V14.01,2013-03-22 07:43:00,
2013-03-22 03:48:00,51.1,43.8,29.93,East,86,0.0,0.0,76,0.00,,CLR,0.00,VWS V14.01,2013-03-22 07:48:00,
2013-03-22 03:53:00,51.0,43.7,29.93,East,86,0.0,0.0,76,0.00,,CLR,0.00,VWS V14.01,2013-03-22 07:53:00,
2013-03-22 03:58:00,50.8,43.5,29.93,East,86,0.0,0.0,76,0.00,,CLR,0.00,VWS V14.01,2013-03-22 07:58:00,
2013-03-22 04:03:00,50.8,43.9,29.93,East,86,0.0,0.0,77,0.00,,CLR,0.00,VWS V14.01,2013-03-22 08:03:00,
2013-03-22 04:08:00,50.7,43.8,29.93,East,86,0.0,0.0,77,0.00,,CLR,0.00,VWS V14.01,2013-03-22 08:08:00,
2013-03-22 04:13:00,50.6,43.7,29.93,East,86,0.0,0.0,77,0.00,,CLR,0.00,VWS V14.01,2013-03-22 08:13:00,
2013-03-22 04:18:00,50.5,43.6,29.94,East,86,0.0,0.0,77,0.00,,CLR,0.00,VWS V14.01,2013-03-22 08:18:00,
2013-03-22 04:23:00,50.4,43.8,29.93,East,86,0.0,0.0,78,0.00,,CLR,0.00,VWS V14.01,2013-03-22 08:23:00,
2013-03-22 04:28:00,50.4,43.8,29.93,East,86,0.0,1.0,78,0.00,,CLR,0.00,VWS V14.01,2013-03-22 08:28:00,
2013-03-22 04:33:00,50.3,43.7,29.93,East,85,0.0,2.0,78,0.00,,CLR,0.00,VWS V14.01,2013-03-22 08:33:00,
2013-03-22 04:38:00,50.2,43.6,29.93,East,85,0.0,2.0,78,0.00,,CLR,0.00,VWS V14.01,2013-03-22 08:38:00,
2013-03-22 04:43:00,50.2,44.0,29.93,East,85,0.0,2.0,79,0.00,,CLR,0.00,VWS V14.01,2013-03-22 08:43:00,
2013-03-22 04:48:00,50.1,43.8,29.93,East,85,0.0,2.0,79,0.00,,CLR,0.00,VWS V14.01,2013-03-22 08:48:00,
2013-03-22 04:53:00,50.1,43.8,29.93,East,84,0.0,2.0,79,0.00,,CLR,0.00,VWS V14.01,2013-03-22 08:53:00,
2013-03-22 04:58:00,50.0,44.1,29.93,East,80,1.0,3.0,80,0.00,,CLR,0.00,VWS V14.01,2013-03-22 08:58:00,
2013-03-22 05:03:00,49.9,44.0,29.93,East,80,0.0,1.0,80,0.00,,CLR,0.00,VWS V14.01,2013-03-22 09:03:00,
2013-03-22 05:08:00,49.7,43.8,29.93,East,81,0.0,1.0,80,0.00,,CLR,0.00,VWS V14.01,2013-03-22 09:08:00,
2013-03-22 05:13:00,49.6,43.7,29.94,East,83,0.0,1.0,80,0.00,,CLR,0.00,VWS V14.01,2013-03-22 09:13:00,
2013-03-22 05:18:00,49.5,43.3,29.93,East,84,0.0,1.0,79,0.00,,CLR,0.00,VWS V14.01,2013-03-22 09:18:00,
2013-03-22 05:23:00,49.4,43.5,29.94,East,83,0.0,1.0,80,0.00,,CLR,0.00,VWS V14.01,2013-03-22 09:23:00,
2013-03-22 05:28:00,49.3,43.1,29.94,East,84,1.0,3.0,79,0.00,,CLR,0.00,VWS V14.01,2013-03-22 09:28:00,
2013-03-22 05:33:00,49.2,43.0,29.94,NW,318,0.0,3.0,79,0.00,,CLR,0.00,VWS V14.01,2013-03-22 09:33:00,
2013-03-22 05:38:00,49.1,43.2,29.94,NW,309,0.0,3.0,80,0.00,,CLR,0.00,VWS V14.01,2013-03-22 09:38:00,
2013-03-22 05:43:00,48.9,42.7,29.94,NW,314,0.0,3.0,79,0.00,,CLR,0.00,VWS V14.01,2013-03-22 09:43:00,
2013-03-22 05:48:00,48.7,43.1,29.94,NW,306,0.0,3.0,81,0.00,,CLR,0.00,VWS V14.01,2013-03-22 09:48:00,
2013-03-22 05:53:00,48.6,42.4,29.94,NW,316,1.0,3.0,79,0.00,,CLR,0.00,VWS V14.01,2013-03-22 09:53:00,
2013-03-22 05:58:00,48.6,42.4,29.95,NW,316,1.0,3.0,79,0.00,,CLR,0.00,VWS V14.01,2013-03-22 09:58:00,
2013-03-22 06:04:00,48.5,42.6,29.94,WNW,301,0.0,0.0,80,0.00,,CLR,0.00,VWS V14.01,2013-03-22 10:04:00,
2013-03-22 06:09:00,48.4,42.2,29.95,NW,317,0.0,0.0,79,0.00,,CLR,0.00,VWS V14.01,2013-03-22 10:09:00,
2013-03-22 06:14:00,48.3,42.4,29.95,NW,315,0.0,1.0,80,0.00,,CLR,0.00,VWS V14.01,2013-03-22 10:14:00,
2013-03-22 06:19:00,48.2,42.3,29.96,NW,313,1.0,1.0,80,0.00,,CLR,0.00,VWS V14.01,2013-03-22 10:19:00,
2013-03-22 06:24:00,48.2,42.0,29.95,NW,317,0.0,2.0,79,0.00,,CLR,0.00,VWS V14.01,2013-03-22 10:24:00,
2013-03-22 06:28:00,48.2,42.7,29.96,WNW,301,0.0,2.0,81,0.00,,CLR,0.00,VWS V14.01,2013-03-22 10:28:00,
2013-03-22 06:33:00,48.1,42.2,29.97,NW,309,0.0,2.0,80,0.00,,CLR,0.00,VWS V14.01,2013-03-22 10:33:00,
2013-03-22 06:38:00,48.1,42.2,29.97,NW,309,0.0,2.0,80,0.00,,CLR,0.00,VWS V14.01,2013-03-22 10:38:00,
2013-03-22 06:43:00,48.1,41.9,29.97,NW,321,0.0,2.0,79,0.00,,CLR,0.00,VWS V14.01,2013-03-22 10:43:00,
2013-03-22 06:48:00,48.1,41.9,29.97,NW,322,0.0,2.0,79,0.00,,CLR,0.00,VWS V14.01,2013-03-22 10:48:00,
2013-03-22 06:53:00,48.0,41.8,29.98,NW,323,0.0,2.0,79,0.00,,CLR,0.00,VWS V14.01,2013-03-22 10:53:00,
2013-03-22 06:58:00,48.1,41.9,29.97,NW,323,0.0,2.0,79,0.00,,CLR,0.00,VWS V14.01,2013-03-22 10:58:00,
2013-03-22 07:03:00,48.0,41.8,29.98,NW,323,0.0,0.0,79,0.00,,CLR,0.00,VWS V14.01,2013-03-22 11:03:00,
2013-03-22 07:08:00,48.1,41.9,29.98,NW,323,0.0,0.0,79,0.00,,CLR,0.00,VWS V14.01,2013-03-22 11:08:00,
2013-03-22 07:13:00,48.0,41.8,29.98,NW,323,0.0,0.0,79,0.00,,CLR,0.00,VWS V14.01,2013-03-22 11:13:00,
2013-03-22 07:18:00,48.0,41.8,29.98,NW,322,0.0,0.0,79,0.00,,CLR,0.00,VWS V14.01,2013-03-22 11:18:00,
2013-03-22 07:23:00,48.0,41.8,29.98,NW,322,0.0,0.0,79,0.00,,CLR,0.00,VWS V14.01,2013-03-22 11:23:00,
2013-03-22 07:29:00,48.0,41.8,29.99,NW,322,0.0,0.0,79,0.00,,CLR,0.00,VWS V14.01,2013-03-22 11:29:00,
2013-03-22 07:34:00,48.0,41.8,29.99,NW,322,0.0,0.0,79,0.00,,CLR,0.00,VWS V14.01,2013-03-22 11:34:00,
2013-03-22 07:39:00,47.8,41.6,29.99,NW,323,0.0,0.0,79,0.00,,CLR,0.00,VWS V14.01,2013-03-22 11:39:00,
2013-03-22 07:44:00,47.6,41.4,30.00,NW,323,0.0,0.0,79,0.00,,CLR,0.00,VWS V14.01,2013-03-22 11:44:00,
2013-03-22 07:49:00,47.5,41.7,30.00,NW,322,0.0,0.0,80,0.00,,CLR,0.00,VWS V14.01,2013-03-22 11:49:00,
2013-03-22 07:54:00,47.5,41.7,30.01,NW,322,0.0,0.0,80,0.00,,CLR,0.00,VWS V14.01,2013-03-22 11:54:00,
2013-03-22 07:59:00,47.4,41.9,30.00,NW,322,0.0,0.0,81,0.00,,CLR,0.00,VWS V14.01,2013-03-22 11:59:00,
2013-03-22 08:04:00,47.5,42.0,29.99,NW,322,0.0,0.0,81,0.00,,,0.00,VWS V14.01,2013-03-22 12:04:00,
2013-03-22 08:09:00,47.5,42.3,30.01,NW,322,0.0,0.0,82,0.00,,,0.00,VWS V14.01,2013-03-22 12:09:00,
2013-03-22 08:14:00,47.7,42.5,30.01,NW,322,0.0,0.0,82,0.00,,,0.00,VWS V14.01,2013-03-22 12:14:00,
2013-03-22 08:19:00,48.1,43.5,30.00,NW,322,0.0,0.0,84,0.00,,,0.00,VWS V14.01,2013-03-22 12:19:00,
2013-03-22 08:24:00,48.6,44.3,30.00,NW,322,0.0,0.0,85,0.00,,,0.00,VWS V14.01,2013-03-22 12:24:00,
2013-03-22 08:29:00,49.3,45.0,30.01,NW,321,0.0,0.0,85,0.00,,,0.00,VWS V14.01,2013-03-22 12:29:00,
2013-03-22 08:34:00,49.8,45.5,30.01,NW,322,0.0,0.0,85,0.00,,,0.00,VWS V14.01,2013-03-22 12:34:00,
2013-03-22 08:39:00,50.1,45.8,30.01,NW,322,0.0,0.0,85,0.00,,,0.00,VWS V14.01,2013-03-22 12:39:00,
2013-03-22 08:44:00,50.4,46.1,30.02,NW,323,0.0,0.0,85,0.00,,,0.00,VWS V14.01,2013-03-22 12:44:00,
2013-03-22 08:49:00,50.8,46.5,30.01,NW,322,0.0,0.0,85,0.00,,,0.00,VWS V14.01,2013-03-22 12:49:00,
2013-03-22 08:54:00,51.1,47.1,30.02,NW,323,0.0,0.0,86,0.00,,,0.00,VWS V14.01,2013-03-22 12:54:00,
2013-03-22 08:59:00,51.9,47.5,30.01,NW,324,0.0,0.0,85,0.00,,,0.00,VWS V14.01,2013-03-22 12:59:00,
2013-03-22 09:04:00,52.4,48.0,30.02,NW,324,0.0,0.0,85,0.00,,FEW120,0.00,VWS V14.01,2013-03-22 13:04:00,
2013-03-22 09:09:00,53.0,48.6,30.02,NW,324,0.0,0.0,85,0.00,,FEW120,0.00,VWS V14.01,2013-03-22 13:09:00,
2013-03-22 09:14:00,53.6,49.2,30.02,NW,324,0.0,0.0,85,0.00,,FEW120,0.00,VWS V14.01,2013-03-22 13:14:00,
2013-03-22 09:19:00,54.0,49.3,30.02,NW,324,0.0,0.0,84,0.00,,FEW120,0.00,VWS V14.01,2013-03-22 13:19:00,
2013-03-22 09:24:00,54.5,50.1,30.02,NW,324,0.0,0.0,85,0.00,,FEW120,0.00,VWS V14.01,2013-03-22 13:24:00,
2013-03-22 09:29:00,55.3,50.9,30.02,NW,324,0.0,0.0,85,0.00,,FEW120,0.00,VWS V14.01,2013-03-22 13:29:00,
2013-03-22 09:34:00,56.1,52.3,30.02,NW,323,0.0,1.0,87,0.00,,FEW120,0.00,VWS V14.01,2013-03-22 13:34:00,
2013-03-22 09:39:00,57.6,53.8,30.02,NW,324,0.0,1.0,87,0.00,,FEW120,0.00,VWS V14.01,2013-03-22 13:39:00,
2013-03-22 09:44:00,59.0,53.8,30.02,NW,324,0.0,1.0,83,0.00,,FEW120,0.00,VWS V14.01,2013-03-22 13:44:00,
2013-03-22 09:49:00,60.8,54.3,30.02,NNE,25,0.0,4.0,79,0.00,,FEW120,0.00,VWS V14.01,2013-03-22 13:49:00,
2013-03-22 09:54:00,62.3,53.2,30.02,North,5,5.0,5.0,72,0.00,,FEW120,0.00,VWS V14.01,2013-03-22 13:54:00,
2013-03-22 09:59:00,63.6,53.3,30.02,NNE,30,1.0,5.0,69,0.00,,FEW120,0.00,VWS V14.01,2013-03-22 13:59:00,
2013-03-22 10:04:00,64.6,53.8,30.03,North,0,3.0,5.0,68,0.00,,CLR,0.00,VWS V14.01,2013-03-22 14:04:00,
2013-03-22 10:09:00,65.3,52.0,30.03,North,0,0.0,5.0,62,0.00,,CLR,0.00,VWS V14.01,2013-03-22 14:09:00,
2013-03-22 10:14:00,65.8,52.0,30.03,North,356,6.0,6.0,61,0.00,,CLR,0.00,VWS V14.01,2013-03-22 14:14:00,
2013-03-22 10:19:00,66.1,51.8,30.03,NE,38,0.0,8.0,60,0.00,,CLR,0.00,VWS V14.01,2013-03-22 14:19:00,
2013-03-22 10:24:00,66.4,52.6,30.03,NE,34,2.0,8.0,61,0.00,,CLR,0.00,VWS V14.01,2013-03-22 14:24:00,
2013-03-22 10:29:00,66.7,51.9,30.04,NE,48,3.0,8.0,59,0.00,,CLR,0.00,VWS V14.01,2013-03-22 14:29:00,
2013-03-22 10:34:00,66.9,52.1,30.04,NNE,26,3.0,9.0,59,0.00,,CLR,0.00,VWS V14.01,2013-03-22 14:34:00,
2013-03-22 10:39:00,67.4,51.2,30.03,NE,47,3.0,9.0,56,0.00,,CLR,0.00,VWS V14.01,2013-03-22 14:39:00,
2013-03-22 10:44:00,67.6,51.4,30.04,NE,47,0.0,9.0,56,0.00,,CLR,0.00,VWS V14.01,2013-03-22 14:44:00,
2013-03-22 10:49:00,68.1,52.8,30.03,NE,52,6.0,9.0,58,0.00,,CLR,0.00,VWS V14.01,2013-03-22 14:49:00,
2013-03-22 10:54:00,68.1,51.8,30.03,East,79,5.0,9.0,56,0.00,,CLR,0.00,VWS V14.01,2013-03-22 14:54:00,
2013-03-22 10:59:00,68.3,51.5,30.04,ENE,57,4.0,9.0,55,0.00,,CLR,0.00,VWS V14.01,2013-03-22 14:59:00,
2013-03-22 11:04:00,68.4,51.6,30.04,North,3,4.0,9.0,55,0.00,,SCT042,0.00,VWS V14.01,2013-03-22 15:04:00,
2013-03-22 11:09:00,68.3,52.5,30.03,ENE,58,5.0,9.0,57,0.00,,SCT042,0.00,VWS V14.01,2013-03-22 15:09:00,
2013-03-22 11:14:00,68.5,52.2,30.04,NNE,33,5.0,9.0,56,0.00,,SCT042,0.00,VWS V14.01,2013-03-22 15:14:00,
2013-03-22 11:19:00,68.5,52.2,30.04,North,5,4.0,9.0,56,0.00,,SCT042,0.00,VWS V14.01,2013-03-22 15:19:00,
2013-03-22 11:24:00,68.7,53.3,30.03,NE,48,4.0,9.0,58,0.00,,SCT042,0.00,VWS V14.01,2013-03-22 15:24:00,
2013-03-22 11:29:00,68.7,53.8,30.03,NE,40,0.0,9.0,59,0.00,,SCT042,0.00,VWS V14.01,2013-03-22 15:29:00,
2013-03-22 11:34:00,68.9,54.9,30.03,NE,45,4.0,10.0,61,0.00,,SCT042,0.00,VWS V14.01,2013-03-22 15:34:00,
2013-03-22 11:39:00,68.9,55.4,30.04,NE,47,4.0,10.0,62,0.00,,SCT042,0.00,VWS V14.01,2013-03-22 15:39:00,
2013-03-22 11:44:00,69.0,55.9,30.03,NNE,33,5.0,10.0,63,0.00,,SCT042,0.00,VWS V14.01,2013-03-22 15:44:00,
2013-03-22 11:49:00,68.9,55.8,30.04,East,80,4.0,10.0,63,0.00,,SCT042,0.00,VWS V14.01,2013-03-22 15:49:00,
2013-03-22 11:54:00,69.2,55.6,30.03,ENE,66,6.0,10.0,62,0.00,,SCT042,0.00,VWS V14.01,2013-03-22 15:54:00,
2013-03-22 11:59:00,69.2,55.6,30.03,North,10,2.0,10.0,62,0.00,,SCT042,0.00,VWS V14.01,2013-03-22 15:59:00,
2013-03-22 12:04:00,69.3,56.6,30.03,NE,39,6.0,9.0,64,0.00,,SCT120,0.00,VWS V14.01,2013-03-22 16:04:00,
2013-03-22 12:09:00,69.2,55.6,30.03,ENE,69,5.0,10.0,62,0.00,,SCT120,0.00,VWS V14.01,2013-03-22 16:09:00,
2013-03-22 12:14:00,69.4,56.3,30.03,NE,46,3.0,10.0,63,0.00,,SCT120,0.00,VWS V14.01,2013-03-22 16:14:00,
2013-03-22 12:19:00,69.6,56.0,30.03,NE,47,5.0,10.0,62,0.00,,SCT120,0.00,VWS V14.01,2013-03-22 16:19:00,
2013-03-22 12:24:00,69.6,58.6,30.03,NE,35,0.0,10.0,68,0.00,,SCT120,0.00,VWS V14.01,2013-03-22 16:24:00,
2013-03-22 12:29:00,69.7,56.1,30.03,ENE,58,3.0,11.0,62,0.00,,SCT120,0.00,VWS V14.01,2013-03-22 16:29:00,
2013-03-22 12:34:00,70.0,56.4,30.02,NNE,12,0.0,11.0,62,0.00,,SCT120,0.00,VWS V14.01,2013-03-22 16:34:00,
2013-03-22 12:39:00,70.3,56.2,30.03,NNE,23,2.0,11.0,61,0.00,,SCT120,0.00,VWS V14.01,2013-03-22 16:39:00,
2013-03-22 12:44:00,70.3,55.8,30.01,NNE,24,0.0,11.0,60,0.00,,SCT120,0.00,VWS V14.01,2013-03-22 16:44:00,
2013-03-22 12:49:00,70.5,56.0,30.01,NE,43,8.0,11.0,60,0.00,,SCT120,0.00,VWS V14.01,2013-03-22 16:49:00,
2013-03-22 12:54:00,70.6,56.5,30.01,NE,52,4.0,11.0,61,0.00,,SCT120,0.00,VWS V14.01,2013-03-22 16:54:00,
2013-03-22 12:59:00,71.0,56.9,30.01,ESE,117,10.0,11.0,61,0.00,,SCT120,0.00,VWS V14.01,2013-03-22 16:59:00,
2013-03-22 13:04:00,71.4,55.4,30.01,NE,45,3.0,7.0,57,0.00,,CLR,0.00,VWS V14.01,2013-03-22 17:04:00,
2013-03-22 13:09:00,71.7,55.2,30.01,SE,124,5.0,11.0,56,0.00,,CLR,0.00,VWS V14.01,2013-03-22 17:09:00,
2013-03-22 13:14:00,72.1,56.0,30.00,ESE,109,10.0,14.0,57,0.00,,CLR,0.00,VWS V14.01,2013-03-22 17:14:00,
2013-03-22 13:19:00,72.4,55.3,30.01,East,92,0.0,14.0,55,0.00,,CLR,0.00,VWS V14.01,2013-03-22 17:19:00,
2013-03-22 13:24:00,72.6,55.5,30.00,East,84,5.0,14.0,55,0.00,,CLR,0.00,VWS V14.01,2013-03-22 17:24:00,
2013-03-22 13:29:00,72.6,55.5,30.00,NE,39,9.0,14.0,55,0.00,,CLR,0.00,VWS V14.01,2013-03-22 17:29:00,
2013-03-22 13:34:00,72.4,55.8,30.00,NE,51,3.0,14.0,56,0.00,,CLR,0.00,VWS V14.01,2013-03-22 17:34:00,
2013-03-22 13:39:00,72.1,56.0,30.00,East,88,7.0,14.0,57,0.00,,CLR,0.00,VWS V14.01,2013-03-22 17:39:00,
2013-03-22 13:44:00,72.1,57.0,30.01,ESE,102,9.0,14.0,59,0.00,,CLR,0.00,VWS V14.01,2013-03-22 17:44:00,
2013-03-22 13:49:00,72.4,55.8,30.00,East,99,3.0,14.0,56,0.00,,CLR,0.00,VWS V14.01,2013-03-22 17:49:00,
2013-03-22 13:54:00,72.6,56.5,30.00,ESE,113,11.0,14.0,57,0.00,,CLR,0.00,VWS V14.01,2013-03-22 17:54:00,
2013-03-22 13:59:00,73.0,56.4,30.00,ENE,61,6.0,14.0,56,0.00,,CLR,0.00,VWS V14.01,2013-03-22 17:59:00,
2013-03-22 14:04:00,72.9,56.8,29.99,East,80,8.0,13.0,57,0.00,,CLR,0.00,VWS V14.01,2013-03-22 18:04:00,
2013-03-22 14:09:00,72.6,56.0,29.99,ENE,60,2.0,13.0,56,0.00,,CLR,0.00,VWS V14.01,2013-03-22 18:09:00,
2013-03-22 14:14:00,73.0,56.9,29.99,ENE,64,4.0,13.0,57,0.00,,CLR,0.00,VWS V14.01,2013-03-22 18:14:00,
2013-03-22 14:19:00,73.0,55.9,29.98,ENE,68,4.0,13.0,55,0.00,,CLR,0.00,VWS V14.01,2013-03-22 18:19:00,
2013-03-22 14:24:00,73.0,56.4,29.99,East,89,4.0,14.0,56,0.00,,CLR,0.00,VWS V14.01,2013-03-22 18:24:00,
2013-03-22 14:29:00,73.3,57.2,29.98,ESE,110,9.0,14.0,57,0.00,,CLR,0.00,VWS V14.01,2013-03-22 18:29:00,
2013-03-22 14:34:00,73.7,57.5,29.98,East,83,6.0,14.0,57,0.00,,CLR,0.00,VWS V14.01,2013-03-22 18:34:00,
2013-03-22 14:39:00,74.0,57.3,29.98,ENE,70,5.0,14.0,56,0.00,,CLR,0.00,VWS V14.01,2013-03-22 18:39:00,
2013-03-22 14:44:00,73.8,57.6,29.97,East,87,6.0,14.0,57,0.00,,CLR,0.00,VWS V14.01,2013-03-22 18:44:00,
2013-03-22 14:49:00,74.0,57.3,29.98,ENE,73,10.0,14.0,56,0.00,,CLR,0.00,VWS V14.01,2013-03-22 18:49:00,
2013-03-22 14:54:00,74.0,57.8,29.97,East,81,5.0,14.0,57,0.00,,CLR,0.00,VWS V14.01,2013-03-22 18:54:00,
2013-03-22 14:59:00,74.1,57.9,29.98,ESE,106,8.0,14.0,57,0.00,,CLR,0.00,VWS V14.01,2013-03-22 18:59:00,
2013-03-22 15:04:00,74.2,58.0,29.97,ESE,118,7.0,14.0,57,0.00,,SCT040,0.00,VWS V14.01,2013-03-22 19:04:00,
2013-03-22 15:09:00,74.2,58.0,29.97,ENE,63,3.0,16.0,57,0.00,,SCT040,0.00,VWS V14.01,2013-03-22 19:09:00,
2013-03-22 15:14:00,74.3,58.1,29.96,SE,135,6.0,16.0,57,0.00,,SCT040,0.00,VWS V14.01,2013-03-22 19:14:00,
2013-03-22 15:19:00,73.9,57.7,29.96,SE,145,4.0,16.0,57,0.00,,RA,0.00,VWS V14.01,2013-03-22 19:19:00,
2013-03-22 15:24:00,73.7,57.5,29.97,ESE,117,7.0,16.0,57,0.00,,RA,0.00,VWS V14.01,2013-03-22 19:24:00,
2013-03-22 15:29:00,73.4,57.7,29.96,SE,125,8.0,16.0,58,0.00,,RA,0.00,VWS V14.01,2013-03-22 19:29:00,
2013-03-22 15:34:00,73.2,58.0,29.95,ESE,116,5.0,16.0,59,0.00,,RA,0.00,VWS V14.01,2013-03-22 19:34:00,
2013-03-22 15:39:00,73.0,57.8,29.96,ESE,111,13.0,16.0,59,0.00,,RA,0.00,VWS V14.01,2013-03-22 19:39:00,
2013-03-22 15:44:00,72.8,58.6,29.95,SE,134,4.0,16.0,61,0.00,,RA,0.00,VWS V14.01,2013-03-22 19:44:00,
2013-03-22 15:49:00,72.8,58.6,29.95,ESE,120,3.0,16.0,61,0.00,,RA,0.00,VWS V14.01,2013-03-22 19:49:00,
2013-03-22 15:54:00,72.9,59.1,29.95,SE,132,4.0,16.0,62,0.00,,RA,0.00,VWS V14.01,2013-03-22 19:54:00,
2013-03-22 15:59:00,72.8,59.0,29.95,SSE,161,2.0,16.0,62,0.00,,RA,0.00,VWS V14.01,2013-03-22 19:59:00,
2013-03-22 16:04:00,72.8,72.8,29.95,SSE,168,6.0,14.0,100,0.00,,RA,0.00,VWS V14.01,2013-03-22 20:04:00,
2013-03-22 16:09:00,72.7,59.8,29.96,ESE,113,6.0,14.0,64,0.00,,RA,0.00,VWS V14.01,2013-03-22 20:09:00,
2013-03-22 16:14:00,72.6,60.2,29.96,East,96,1.0,14.0,65,0.00,,RA,0.00,VWS V14.01,2013-03-22 20:14:00,
2013-03-22 16:19:00,72.4,60.0,29.95,ESE,103,5.0,14.0,65,0.00,,RA,0.00,VWS V14.01,2013-03-22 20:19:00,
2013-03-22 16:24:00,72.1,60.1,29.95,East,94,5.0,14.0,66,0.00,,RA,0.00,VWS V14.01,2013-03-22 20:24:00,
2013-03-22 16:29:00,72.0,62.9,29.95,ESE,105,7.0,14.0,73,0.00,,RA,0.00,VWS V14.01,2013-03-22 20:29:00,
2013-03-22 16:34:00,71.9,60.4,29.94,SE,128,6.0,14.0,67,0.00,,RA,0.00,VWS V14.01,2013-03-22 20:34:00,
2013-03-22 16:39:00,71.9,60.8,29.94,SE,136,7.0,15.0,68,0.00,,RA,0.00,VWS V14.01,2013-03-22 20:39:00,
2013-03-22 16:44:00,71.9,62.4,29.94,East,97,8.0,15.0,72,0.00,,RA,0.00,VWS V14.01,2013-03-22 20:44:00,
2013-03-22 16:49:00,71.6,62.9,29.94,ESE,120,3.0,15.0,74,0.00,,RA,0.00,VWS V14.01,2013-03-22 20:49:00,
2013-03-22 16:54:00,71.4,63.5,29.94,ESE,114,8.0,15.0,76,0.00,,RA,0.00,VWS V14.01,2013-03-22 20:54:00,
2013-03-22 16:59:00,71.0,63.8,29.94,ESE,118,8.0,15.0,78,0.00,,RA,0.00,VWS V14.01,2013-03-22 20:59:00,
2013-03-22 17:04:00,70.8,63.2,29.94,ESE,111,6.0,16.0,77,0.00,,OVC044,0.00,VWS V14.01,2013-03-22 21:04:00,
2013-03-22 17:09:00,70.4,62.1,29.95,ESE,113,8.0,16.0,75,0.00,,OVC044,0.00,VWS V14.01,2013-03-22 21:09:00,
2013-03-22 17:14:00,70.1,61.4,29.94,SSE,149,3.0,16.0,74,0.00,,OVC044,0.00,VWS V14.01,2013-03-22 21:14:00,
2013-03-22 17:19:00,69.9,63.5,29.94,ESE,102,4.0,16.0,80,0.00,,OVC044,0.00,VWS V14.01,2013-03-22 21:19:00,
2013-03-22 17:24:00,69.8,62.3,29.94,SSE,148,7.0,16.0,77,0.00,,OVC044,0.00,VWS V14.01,2013-03-22 21:24:00,
2013-03-22 17:29:00,69.6,62.4,29.95,SE,134,9.0,16.0,78,0.00,,OVC044,0.00,VWS V14.01,2013-03-22 21:29:00,
2013-03-22 17:34:00,69.4,62.2,29.95,SSE,163,2.0,16.0,78,0.01,,OVC044,0.01,VWS V14.01,2013-03-22 21:34:00,
2013-03-22 17:39:00,69.3,62.2,29.94,SE,139,3.0,16.0,78,0.01,,OVC044,0.01,VWS V14.01,2013-03-22 21:39:00,
2013-03-22 17:44:00,69.1,62.0,29.94,SSE,157,2.0,16.0,78,0.01,,OVC044,0.01,VWS V14.01,2013-03-22 21:44:00,
2013-03-22 17:49:00,68.8,62.0,29.94,SSE,155,0.0,16.0,79,0.01,,OVC044,0.01,VWS V14.01,2013-03-22 21:49:00,
2013-03-22 17:54:00,68.6,61.8,29.94,SE,135,3.0,16.0,79,0.01,,OVC044,0.01,VWS V14.01,2013-03-22 21:54:00,
2013-03-22 17:59:00,68.4,61.6,29.94,SSE,165,1.0,16.0,79,0.01,,OVC044,0.01,VWS V14.01,2013-03-22 21:59:00,
2013-03-22 18:04:00,68.2,61.8,29.94,SE,128,4.0,8.0,80,0.01,,OVC038,0.01,VWS V14.01,2013-03-22 22:04:00,
2013-03-22 18:09:00,68.2,61.5,29.94,SE,132,4.0,8.0,79,0.01,,OVC038,0.01,VWS V14.01,2013-03-22 22:09:00,
2013-03-22 18:14:00,68.1,61.3,29.94,ESE,122,0.0,8.0,79,0.01,,OVC038,0.01,VWS V14.01,2013-03-22 22:14:00,
2013-03-22 18:19:00,68.1,61.3,29.94,SE,139,3.0,8.0,79,0.01,,OVC038,0.01,VWS V14.01,2013-03-22 22:19:00,
2013-03-22 18:24:00,68.2,61.5,29.94,SSE,147,3.0,8.0,79,0.01,,OVC038,0.01,VWS V14.01,2013-03-22 22:24:00,
2013-03-22 18:29:00,68.2,61.5,29.95,ESE,112,5.0,8.0,79,0.01,,OVC038,0.01,VWS V14.01,2013-03-22 22:29:00,
2013-03-22 18:34:00,68.3,61.5,29.94,SE,134,3.0,8.0,79,0.01,,OVC038,0.01,VWS V14.01,2013-03-22 22:34:00,
2013-03-22 18:39:00,68.3,61.5,29.95,SE,133,5.0,8.0,79,0.01,,OVC038,0.01,VWS V14.01,2013-03-22 22:39:00,
2013-03-22 18:44:00,68.3,61.5,29.95,SE,133,1.0,8.0,79,0.01,,OVC038,0.01,VWS V14.01,2013-03-22 22:44:00,
2013-03-22 18:49:00,68.3,61.5,29.96,SE,132,0.0,8.0,79,0.01,,OVC038,0.01,VWS V14.01,2013-03-22 22:49:00,
2013-03-22 18:54:00,68.3,60.8,29.95,ENE,72,0.0,8.0,77,0.01,,OVC038,0.01,VWS V14.01,2013-03-22 22:54:00,
2013-03-22 18:59:00,68.3,61.2,29.97,ENE,72,0.0,8.0,78,0.01,,OVC038,0.01,VWS V14.01,2013-03-22 22:59:00,
2013-03-22 19:04:00,68.3,61.2,29.97,NNE,20,0.0,3.0,78,0.00,,OVC038,0.01,VWS V14.01,2013-03-22 23:04:00,
2013-03-22 19:09:00,68.3,60.1,29.97,East,88,0.0,3.0,75,0.00,,OVC038,0.01,VWS V14.01,2013-03-22 23:09:00,
2013-03-22 19:14:00,68.3,60.1,29.96,ESE,108,0.0,4.0,75,0.00,,OVC038,0.01,VWS V14.01,2013-03-22 23:14:00,
2013-03-22 19:19:00,68.4,59.8,29.97,ESE,105,0.0,4.0,74,0.00,,OVC038,0.01,VWS V14.01,2013-03-22 23:19:00,
2013-03-22 19:24:00,68.5,59.9,29.97,SE,139,2.0,6.0,74,0.00,,OVC038,0.01,VWS V14.01,2013-03-22 23:24:00,
2013-03-22 19:29:00,68.5,59.5,29.97,SE,139,0.0,6.0,73,0.00,,OVC038,0.01,VWS V14.01,2013-03-22 23:29:00,
2013-03-22 19:34:00,68.7,60.5,29.98,SE,136,0.0,6.0,75,0.00,,OVC038,0.01,VWS V14.01,2013-03-22 23:34:00,
2013-03-22 19:39:00,68.8,61.3,29.98,SE,135,0.0,6.0,77,0.00,,OVC038,0.01,VWS V14.01,2013-03-22 23:39:00,
2013-03-22 19:44:00,68.8,61.3,29.99,SE,133,0.0,6.0,77,0.00,,OVC038,0.01,VWS V14.01,2013-03-22 23:44:00,
2013-03-22 19:49:00,68.8,60.6,29.97,East,89,2.0,6.0,75,0.00,,OVC038,0.01,VWS V14.01,2013-03-22 23:49:00,
2013-03-22 19:54:00,68.9,60.3,29.98,NE,54,0.0,6.0,74,0.00,,OVC038,0.01,VWS V14.01,2013-03-22 23:54:00,
2013-03-22 19:59:00,69.1,60.5,29.98,ENE,67,2.0,6.0,74,0.00,,OVC038,0.01,VWS V14.01,2013-03-22 23:59:00,
2013-03-22 20:04:00,69.2,60.6,29.97,ESE,120,5.0,7.0,74,0.00,,OVC038,0.01,VWS V14.01,2013-03-23 00:04:00,
2013-03-22 20:09:00,69.3,61.0,29.97,ESE,111,3.0,10.0,75,0.00,,OVC038,0.01,VWS V14.01,2013-03-23 00:09:00,
2013-03-22 20:14:00,69.3,61.0,29.98,SE,125,8.0,10.0,75,0.00,,OVC038,0.01,VWS V14.01,2013-03-23 00:14:00,
2013-03-22 20:19:00,69.4,61.1,29.99,SE,132,3.0,10.0,75,0.00,,OVC038,0.01,VWS V14.01,2013-03-23 00:19:00,
2013-03-22 20:24:00,69.5,61.2,29.98,ESE,119,3.0,10.0,75,0.00,,OVC038,0.01,VWS V14.01,2013-03-23 00:24:00,
2013-03-22 20:29:00,69.5,61.2,29.98,ESE,116,4.0,10.0,75,0.00,,OVC038,0.01,VWS V14.01,2013-03-23 00:29:00,
2013-03-22 20:34:00,69.6,61.3,29.98,SE,130,5.0,10.0,75,0.00,,OVC038,0.01,VWS V14.01,2013-03-23 00:34:00,
2013-03-22 20:39:00,69.6,61.7,29.97,SSE,151,3.0,10.0,76,0.00,,OVC038,0.01,VWS V14.01,2013-03-23 00:39:00,
2013-03-22 20:44:00,69.6,61.7,29.98,SE,132,5.0,10.0,76,0.00,,OVC038,0.01,VWS V14.01,2013-03-23 00:44:00,
2013-03-22 20:49:00,69.7,62.2,29.98,ESE,123,4.0,10.0,77,0.00,,OVC038,0.01,VWS V14.01,2013-03-23 00:49:00,
2013-03-22 20:54:00,69.7,62.2,30.00,SE,126,3.0,10.0,77,0.00,,OVC038,0.01,VWS V14.01,2013-03-23 00:54:00,
2013-03-22 20:59:00,69.7,61.4,29.99,ESE,119,3.0,3.0,75,0.00,,OVC038,0.01,VWS V14.01,2013-03-23 00:59:00,
2013-03-22 21:04:00,69.8,61.5,29.99,ESE,116,3.0,6.0,75,0.00,,OVC038,0.01,VWS V14.01,2013-03-23 01:04:00,
2013-03-22 21:09:00,69.8,61.9,30.00,SE,124,2.0,6.0,76,0.00,,OVC038,0.01,VWS V14.01,2013-03-23 01:09:00,
2013-03-22 21:14:00,69.9,62.0,30.00,SE,145,0.0,6.0,76,0.00,,OVC038,0.01,VWS V14.01,2013-03-23 01:14:00,
2013-03-22 21:19:00,70.0,62.1,30.00,SE,138,3.0,6.0,76,0.00,,OVC038,0.01,VWS V14.01,2013-03-23 01:19:00,
2013-03-22 21:24:00,70.0,62.1,30.00,SE,131,2.0,6.0,76,0.00,,OVC038,0.01,VWS V14.01,2013-03-23 01:24:00,
2013-03-22 21:29:00,70.0,62.1,30.00,ESE,119,5.0,8.0,76,0.00,,OVC038,0.01,VWS V14.01,2013-03-23 01:29:00,
2013-03-22 21:34:00,70.1,62.2,30.00,ESE,111,3.0,8.0,76,0.00,,OVC038,0.01,VWS V14.01,2013-03-23 01:34:00,
2013-03-22 21:39:00,70.1,62.2,30.00,ESE,113,4.0,8.0,76,0.00,,OVC038,0.01,VWS V14.01,2013-03-23 01:39:00,
2013-03-22 21:44:00,70.1,62.2,29.99,ESE,109,3.0,9.0,76,0.00,,OVC038,0.01,VWS V14.01,2013-03-23 01:44:00,
2013-03-22 21:49:00,70.2,62.3,29.99,SE,146,4.0,9.0,76,0.00,,OVC038,0.01,VWS V14.01,2013-03-23 01:49:00,
2013-03-22 21:54:00,70.2,62.3,30.00,ESE,122,5.0,10.0,76,0.00,,OVC038,0.01,VWS V14.01,2013-03-23 01:54:00,
2013-03-22 21:59:00,70.2,62.7,29.99,ESE,108,3.0,10.0,77,0.00,,OVC038,0.01,VWS V14.01,2013-03-23 01:59:00,
2013-03-22 22:04:00,70.3,62.8,29.99,SE,127,5.0,6.0,77,0.00,,OVC048,0.01,VWS V14.01,2013-03-23 02:04:00,
2013-03-22 22:09:00,70.3,62.8,29.99,ESE,118,6.0,7.0,77,0.00,,OVC048,0.01,VWS V14.01,2013-03-23 02:09:00,
2013-03-22 22:14:00,70.3,63.1,30.00,SE,128,0.0,8.0,78,0.00,,OVC048,0.01,VWS V14.01,2013-03-23 02:14:00,
2013-03-22 22:19:00,70.3,63.1,30.00,ESE,113,2.0,8.0,78,0.00,,OVC048,0.01,VWS V14.01,2013-03-23 02:19:00,
2013-03-22 22:24:00,70.3,63.1,30.01,ESE,113,0.0,8.0,78,0.00,,OVC048,0.01,VWS V14.01,2013-03-23 02:24:00,
2013-03-22 22:29:00,70.3,63.5,30.01,ESE,113,0.0,8.0,79,0.00,,OVC048,0.01,VWS V14.01,2013-03-23 02:29:00,
2013-03-22 22:35:00,70.2,63.8,30.01,ESE,113,0.0,8.0,80,0.00,,OVC048,0.01,VWS V14.01,2013-03-23 02:35:00,
2013-03-22 22:40:00,70.2,63.4,30.00,SE,134,3.0,8.0,79,0.00,,OVC048,0.01,VWS V14.01,2013-03-23 02:40:00,
2013-03-22 22:45:00,70.2,63.8,30.01,SE,134,0.0,8.0,80,0.00,,OVC048,0.01,VWS V14.01,2013-03-23 02:45:00,
2013-03-22 22:50:00,70.1,63.7,30.01,SE,134,0.0,8.0,80,0.00,,OVC048,0.01,VWS V14.01,2013-03-23 02:50:00,
2013-03-22 22:55:00,70.1,64.0,30.01,ENE,75,4.0,8.0,81,0.00,,OVC048,0.01,VWS V14.01,2013-03-23 02:55:00,
2013-03-22 23:00:00,70.0,64.3,30.01,ENE,65,5.0,5.0,82,0.00,,OVC048,0.01,VWS V14.01,2013-03-23 03:00:00,
2013-03-22 23:05:00,70.0,64.3,30.02,ENE,60,2.0,5.0,82,0.00,,-RA,0.01,VWS V14.01,2013-03-23 03:05:00,
2013-03-22 23:10:00,70.0,64.3,30.01,East,87,5.0,7.0,82,0.00,,-RA,0.01,VWS V14.01,2013-03-23 03:10:00,
2013-03-22 23:15:00,69.9,64.2,30.02,ENE,75,0.0,7.0,82,0.00,,-RA,0.01,VWS V14.01,2013-03-23 03:15:00,
2013-03-22 23:20:00,70.0,64.3,30.02,ESE,110,2.0,7.0,82,0.00,,-RA,0.01,VWS V14.01,2013-03-23 03:20:00,
2013-03-22 23:25:00,70.0,64.6,30.02,SE,126,0.0,7.0,83,0.00,,BKN039,0.01,VWS V14.01,2013-03-23 03:25:00,
2013-03-22 23:30:00,69.9,64.5,30.02,ESE,115,2.0,7.0,83,0.00,,BKN039,0.01,VWS V14.01,2013-03-23 03:30:00,
2013-03-22 23:35:00,69.8,64.8,29.98,SE,145,5.0,9.0,84,0.00,,BKN039,0.01,VWS V14.01,2013-03-23 03:35:00,
2013-03-22 23:40:00,69.8,64.8,30.00,ENE,65,2.0,9.0,84,0.01,,BKN039,0.02,VWS V14.01,2013-03-23 03:40:00,
2013-03-22 23:45:00,69.7,65.0,30.02,East,87,0.0,9.0,85,0.02,,BKN039,0.03,VWS V14.01,2013-03-23 03:45:00,
2013-03-22 23:50:00,69.6,65.2,30.01,SE,131,3.0,9.0,86,0.02,,BKN039,0.03,VWS V14.01,2013-03-23 03:50:00,
2013-03-22 23:55:00,69.4,65.0,29.98,SE,125,4.0,11.0,86,0.02,,BKN039,0.03,VWS V14.01,2013-03-23 03:55:00,